Weather in Baraba

Russia / Sverdlovsk Oblast     56°44′59″N   61°45′51″E
temp.,
°C
wind,
m/s
gust,
m/s
humid.,
%
clouds,
%
prec.,
mm/h
press.,
hPa
HPBL,
m
28 july, wed
wed2823:00+11nnw38745 0.0 1010132
02:00+8nw37815 0.0 1011120
05:00+6wnw37885 0.0 1011130
08:00+12wnw585820 0.0 1010908
11:00+13wnw6848100 0.0 10101705
14:00+14wnw685590 0.1 10101513
17:00+15nw474899 0.2 10101693
20:00+13wnw595890 0.0 1011639
29 july, thu
thu2923:00+8wnw35805 0.0 101288
02:00+6w358588 0.0 101170
05:00+6w389348 0.0 1011171
08:00+12w586171 0.0 1011409
11:00+18w694337 0.0 10091889
14:00+19w4946100 0.0 10081677
17:00+21w51042100 0.0 10072471
20:00+16nw247397 0.2 100778
30 july, fri
fri3023:00+13sw488416 0.2 1007129
02:00+12wsw4108848 0.1 1007195
05:00+12wsw4129746 0.1 1007289
08:00+14ssw249398 0.0 1007127
11:00+20s675640 0.1 10061293
14:00+17s5669100 0.1 10051025
17:00+19ssw346372 0.1 1004895
20:00+18wsw497324 0.0 1004488
31 july, sat
sat3123:00+14wsw410935 0.0 1004274
02:00+13wsw412955 0.0 1004260
05:00+15w513945 0.0 1005449
08:00+18nw6107953 0.0 1007720
11:00+23wnw46545 0.0 10071159
14:00+26wnw46439 0.0 10081999
17:00+27wnw3638100 0.0 10082529
20:00+22wnw22596 0.0 100935
1 august, sun
sun123:00+19wsw226694 0.0 100911
02:00+17sw34717 0.0 100966
05:00+17sw4976100 0.0 1009147
08:00+21sw496293 0.1 1009286
11:00+27wsw564619 0.1 10081104
14:00+30wsw583822 0.0 10082572
17:00+25w3857100 0.0 1008279
20:00+21sw368131 0.6 1009112